Home > Weather > Arendal > Past weeks

Flag for Norway Past Weather in Arendal, Norway — Yesterday and Last 2 Weeks

Now
56 °F

Cool.


Feels Like: 54 °F
Forecast: 54 / 67 °F
Wind: 7 mph from Southwest

Location: Torungen Fyr

Current Time: Jul 31, 2016 at 3:44:26 AM

Latest Report: Jul 31, 2016 at 3:00 AM


Visibility: N/A

Pressure: 29.76 "Hg

Humidity: 83%

Dew Point: 51 °F

Location of ArendalLocation

Past Weather in Arendal — Graph

°F

Arendal Temperature Yesterday

Maximum temperature yesterday: 68 °F (at 3:00 PM)
Minimum temperature yesterday: 54 °F (at 6:00 AM)
Average temperature yesterday: 61 °F

High & Low Weather Summary for the Past Weeks

 TemperatureHumidityPressure
High71 °F (Jul 16, 5:00 PM)97% (Jul 21, 2:00 AM)30.15 "Hg (Jul 21, 2:00 AM)
Low54 °F (Jul 17, 6:00 AM)37% (Jul 16, 5:00 PM)29.69 "Hg (Jul 30, 4:00 AM)
Average63 °F83%29.96 "Hg
* Reported Jul 16 2:00 AM — Jul 31 2:00 AM, Arendal, Weather by CustomWeather, © 2016

Note: Actual official high and low records may vary slightly from our data, if they occured in-between our weather recording intervals... More about our weather records

Advertising

Arendal Weather History for the Previous 24 Hours

Scroll right to see more
 ConditionsComfort  
Time TempWeatherWind HumidityBarometerVisibility
2:00 AM
Sun, Jul 31
56 °FCool.7 mph81%29.76 "HgN/A
1:00 AM57 °FCool.8 mph78%29.76 "HgN/A
12:00 AM58 °FCool.7 mph76%29.76 "HgN/A
11:00 PM
Sat, Jul 30
60 °FCool.9 mph71%29.75 "HgN/A
10:00 PM61 °FCool.10 mph67%29.74 "HgN/A
9:00 PM63 °FMild.9 mph62%29.73 "HgN/A
8:00 PM64 °FMild.8 mph61%29.72 "HgN/A
7:00 PM65 °FMild.9 mph60%29.72 "HgN/A
6:00 PM67 °FMild.12 mph50%29.71 "HgN/A
5:00 PM67 °FMild.12 mph52%29.71 "HgN/A
4:00 PM67 °FMild.9 mph53%29.71 "HgN/A
3:00 PM68 °FMild.6 mph54%29.70 "HgN/A
2:00 PM67 °FMild.9 mph53%29.70 "HgN/A
1:00 PM67 °FMild.7 mph49%29.70 "HgN/A
12:00 PM66 °FMild.7 mph56%29.70 "HgN/A
11:00 AM64 °FMild.6 mph62%29.70 "HgN/A
10:00 AM62 °FMild.6 mph70%29.70 "HgN/A
9:00 AM59 °FCool.6 mph78%29.70 "HgN/A
8:00 AM56 °FCool.3 mph86%29.70 "HgN/A
7:00 AM55 °FCool.3 mph89%29.70 "HgN/A
6:00 AM54 °FCool.3 mph93%29.69 "HgN/A
5:00 AM54 °FCool.3 mph95%29.69 "HgN/A
4:00 AM55 °FCool.2 mph95%29.69 "HgN/A
3:00 AM56 °FCool.3 mph94%29.70 "HgN/A
Weather by CustomWeather, © 2016

See weather overviewHow to use our weather pages